[Date Prev][Date Next][Thread Prev][Thread Next] - [Date Index][Thread Index][Author Index]

2 Line ISS Keps 6-11



ISS
1 25544U 98067A   02162.18076757 -.00034233  00000-0 -40553-3 0  5502
2 25544  51.6361  83.0698 0006554 182.7933 263.9468 15.60302229203093


----
Via the sarex mailing list at AMSAT.ORG courtesy of AMSAT-NA.
To unsubscribe, send "unsubscribe sarex" to Majordomo@amsat.org



AMSAT Top AMSAT Home